This is the latest recevied weather packets stored in our database for station/object WA9NNN-10. If no packets are shown the sender has not sent any weather packets the latest 1 day(s).
| Time | Temp. | Humidity | Pressure | Rain* | Wind** | Luminosity | Snow |
|---|---|---|---|---|---|---|---|
| 1836274784 | 23.89° C | 74% | 1016.7 hPa | 0 mm | 0 m/s | - | - |
| 1836274485 | 23.89° C | 74% | 1016.7 hPa | 0 mm | 0 m/s | - | - |
| 1836274335 | 23.89° C | 74% | 1016.7 hPa | 0 mm | 0.45 m/s, 359° | - | - |
| 1836274185 | 24.44° C | 74% | 1016.6 hPa | 0 mm | 0 m/s | - | - |
| 1836273884 | 24.44° C | 74% | 1016.8 hPa | 0 mm | 0 m/s | - | - |
| 1778035897 | 12.78° C | 42% | 1009.5 hPa | 0 mm | 0.89 m/s, 311° | - | - |
| 1778035597 | 12.78° C | 42% | 1009.6 hPa | 0 mm | 0.89 m/s, 321° | - | - |
| 1778035297 | 12.78° C | 42% | 1009.6 hPa | 0 mm | 0.45 m/s, 314° | - | - |
| 1778034997 | 12.78° C | 42% | 1009.4 hPa | 0 mm | 0.45 m/s, 283° | - | - |
| 1778034697 | 12.78° C | 42% | 1009.3 hPa | 0 mm | 0.45 m/s, 316° | - | - |
| 1778034397 | 12.78° C | 42% | 1009.2 hPa | 0 mm | 0.45 m/s, 308° | - | - |
| 1778034097 | 12.78° C | 42% | 1009.3 hPa | 0 mm | 0.45 m/s, 313° | - | - |
| 1778033797 | 12.78° C | 41% | 1009.2 hPa | 0 mm | 0.89 m/s, 283° | - | - |
| 1778033497 | 12.78° C | 41% | 1009.1 hPa | 0 mm | 0.89 m/s, 307° | - | - |
| 1778033197 | 12.78° C | 41% | 1009.1 hPa | 0 mm | 0 m/s | - | - |
| 1778032897 | 12.78° C | 41% | 1008.8 hPa | 0 mm | 0.45 m/s, 295° | - | - |
| 1778032597 | 12.78° C | 40% | 1008.9 hPa | 0 mm | 1.34 m/s, 322° | - | - |
| 1778032298 | 12.78° C | 40% | 1009 hPa | 0 mm | 0.89 m/s, 304° | - | - |
| 1778031997 | 12.78° C | 40% | 1008.8 hPa | 0 mm | 0.45 m/s, 311° | - | - |
| 1778031697 | 13.33° C | 40% | 1009 hPa | 0 mm | 0.45 m/s, 292° | - | - |
| 1778031398 | 13.33° C | 39% | 1008.7 hPa | 0 mm | 1.34 m/s, 283° | - | - |
| 1778031098 | 13.33° C | 39% | 1008.5 hPa | 0 mm | 0.89 m/s, 323° | - | - |
| 1778030797 | 13.33° C | 39% | 1008.5 hPa | 0 mm | 0.89 m/s, 300° | - | - |
| 1778030497 | 13.33° C | 38% | 1008.5 hPa | 0 mm | 0.89 m/s, 300° | - | - |
| 1778030197 | 13.33° C | 38% | 1008.5 hPa | 0 mm | 0.45 m/s, 299° | - | - |
* Rain latest hour (hover to see other rain measurements)
** Current wind speed in m/s (hover to see current wind gust speed)